Location: Hlohovi?ky
(49.8934°N, 13.6739°E)
Time: 20:26:44
(UTC+00:00)

Cosmos 1805 - Pass Details

Date: 19 May 2025
Orbit: 448 x 452 km, 82.5° (Epoch: 20 June)

Event Time Altitude Azimuth Distance (km) Brightness Sun altitude
Rises 20:45:23 0° 354° (N) 2,469 7.8 -13.9°
Reaches altitude 10° 20:47:32 10° 1° (N) 1,590 6.6 -14.1°
Maximum altitude 20:50:53 46° 76° (ENE) 616 3.4 -14.4°
Enters shadow 20:52:17 28° 132° (SE) 866 3.8 -14.5°
